This is the latest recevied weather packets stored in our database for station/object W9PEM-13. If no packets are shown the sender has not sent any weather packets the latest 10 day(s).
| Time | Temp. | Humidity | Pressure | Rain* | Wind** | Luminosity | Snow |
|---|---|---|---|---|---|---|---|
| 1777407287 | 16.67° C | 54% | 982 hPa | 0 mm | - | 705 W/m² | - |
| 1777406687 | 16.11° C | 57% | 982.2 hPa | 0 mm | - | 713 W/m² | - |
| 1777406087 | 16.11° C | 57% | 982.2 hPa | 0 mm | - | 730 W/m² | - |
| 1777405489 | 15.56° C | 59% | 982.4 hPa | 0 mm | - | 780 W/m² | - |
| 1777404887 | 15.56° C | 61% | 982.2 hPa | 0 mm | - | 776 W/m² | - |
| 1777404287 | 15.56° C | 60% | 982.4 hPa | 0 mm | - | 817 W/m² | - |
| 1777403687 | 15.56° C | 61% | 982.1 hPa | 0 mm | - | 781 W/m² | - |
| 1777402487 | 15° C | 66% | 982.4 hPa | 0 mm | - | 903 W/m² | - |
| 1777401887 | 15° C | 63% | 982.3 hPa | 0 mm | - | 872 W/m² | - |
| 1777401287 | 14.44° C | 66% | 982.2 hPa | 0 mm | - | 904 W/m² | - |
| 1777400687 | 13.89° C | 66% | 982.2 hPa | 0 mm | - | 815 W/m² | - |
| 1777400087 | 13.89° C | 65% | 982 hPa | 0 mm | - | 911 W/m² | - |
| 1777399487 | 13.33° C | 66% | 982.1 hPa | 0 mm | - | 927 W/m² | - |
| 1777398888 | 13.33° C | 67% | 981.8 hPa | 0 mm | - | 269 W/m² | - |
| 1777398287 | 13.33° C | 65% | 981.8 hPa | 0 mm | - | 824 W/m² | - |
| 1777397687 | 12.78° C | 69% | 981.9 hPa | 0 mm | - | 1018 W/m² | - |
| 1777397088 | 12.78° C | 66% | 981.8 hPa | 0 mm | - | 947 W/m² | - |
| 1777396488 | 12.78° C | 68% | 981.8 hPa | 0 mm | - | 813 W/m² | - |
| 1777395887 | 12.22° C | 70% | 981.8 hPa | 0 mm | - | 761 W/m² | - |
| 1777395287 | 12.22° C | 70% | 981.8 hPa | 0 mm | - | 452 W/m² | - |
| 1777394687 | 12.22° C | 71% | 981.8 hPa | 0 mm | - | 485 W/m² | - |
| 1777394087 | 11.67° C | 72% | 981.4 hPa | 0 mm | - | 920 W/m² | - |
| 1777393488 | 11.67° C | 72% | 981.3 hPa | 0 mm | - | 347 W/m² | - |
| 1777392887 | 12.22° C | 73% | 981.4 hPa | 0 mm | - | 439 W/m² | - |
| 1777392287 | 11.67° C | 72% | 981.2 hPa | 0 mm | - | 954 W/m² | - |
* Rain latest hour (hover to see other rain measurements)
** Current wind speed in m/s (hover to see current wind gust speed)